Weather History for KBML - September, 2013

Change the Weather History Date:

Sunday, September 29, 2013

  Actual Average Record
Temperature  
Mean Temperature 56 °F -  
Max Temperature 73 °F 60 °F 75 °F (2014)
Min Temperature 39 °F 33 °F 19 °F (2000)
Degree Days  
Heating Degree Days 10    
Growing Degree Days 6 (Base 50)    
Moisture  
Dew Point 43 °F    
Average Humidity 90    
Maximum Humidity 100    
Minimum Humidity 43    
Precipitation  
Precipitation 0.01 in - - ()
Sea Level Pressure  
Sea Level Pressure 30.22 in    
Wind  
Wind Speed 0 mph (South)    
Max Wind Speed 8 mph    
Max Gust Speed -    
Visibility 3 miles    
Events Fog    
Averages and records for this station are not official NWS values.
T = Trace of Precipitation, MM = Missing Value Source: NWS Daily Summary

Daily Weather History Graph

Daily Weather History Graph

Search for Another Location

Airport or City:

Trip Planner

Search our weather history database for the weather conditions in past years. The results will help you decide how hot, cold, wet, or windy it might be!

Date:

Astronomy

Sep. 29, 2013 Rise Set
Actual Time 6:40 AM EDT 6:28 PM EDT
Civil Twilight 6:11 AM EDT 6:57 PM EDT
Nautical Twilight 5:37 AM EDT 7:31 PM EDT
Astronomical Twilight 5:03 AM EDT 8:05 PM EDT
Moon 1:07 AM EDT (9/29) 3:32 PM EDT (9/29)
Length of Visible Light 12h 46m
Length of Day
11h 48m
Waning Crescent, 27% of the Moon is Illuminated
Sep 29
Waning Crescent
Oct 4
New
Oct 11
First Quarter
Oct 18
Full
Oct 26
Last Quarter

Hourly Weather History & Observations

Time (EDT) Temp. Dew Point Humidity Pressure Visibility Wind Dir Wind Speed Gust Speed Precip Events Conditions
12:02 AM 41.0 °F 39.2 °F 93% 30.28 in 1.5 mi Calm Calm - N/A   Overcast
12:04 AM 41.0 °F 39.2 °F 93% 30.28 in 0.8 mi Calm Calm - N/A   Mist
12:14 AM 42.8 °F 42.8 °F 100% 30.28 in 0.2 mi Calm Calm - N/A Fog Fog
12:52 AM 41.0 °F 41.0 °F 100% 30.29 in 0.2 mi Calm Calm - N/A Fog Fog
1:29 AM 41.0 °F 39.2 °F 93% 30.28 in 0.8 mi Calm Calm - N/A   Mist
1:33 AM 39.2 °F 39.2 °F 100% 30.28 in 1.8 mi Calm Calm - N/A   Overcast
1:35 AM 39.2 °F 39.2 °F 100% 30.28 in 4.0 mi Calm Calm - N/A   Overcast
1:45 AM 39.2 °F 39.2 °F 100% 30.27 in 1.8 mi Calm Calm - N/A   Overcast
1:47 AM 39.2 °F 39.2 °F 100% 30.27 in 1.0 mi Calm Calm - N/A   Mist
1:52 AM 39.9 °F 39.9 °F 100% 30.28 in 0.5 mi Calm Calm - N/A Fog Fog
1:59 AM 41.0 °F 39.2 °F 93% 30.27 in 0.2 mi Calm Calm - N/A Fog Fog
2:10 AM 41.0 °F 39.2 °F 93% 30.27 in 1.0 mi Calm Calm - N/A   Mist
2:18 AM 41.0 °F 41.0 °F 100% 30.27 in 0.2 mi Calm Calm - N/A Fog Fog
2:25 AM 41.0 °F 41.0 °F 100% 30.27 in 0.2 mi Calm Calm - N/A Fog Fog
2:39 AM 41.0 °F 41.0 °F 100% 30.27 in 0.2 mi Calm Calm - N/A Fog Fog
2:52 AM 41.0 °F 41.0 °F 100% 30.28 in 0.2 mi Calm Calm - N/A Fog Fog
3:09 AM 42.8 °F 41.0 °F 93% 30.26 in 0.2 mi Calm Calm - N/A Fog Fog
3:52 AM 42.1 °F 42.1 °F 100% 30.27 in 0.2 mi Calm Calm - N/A Fog Fog
4:23 AM 42.8 °F 42.8 °F 100% 30.26 in 0.2 mi Calm Calm - N/A Fog Fog
4:52 AM 43.0 °F 42.1 °F 97% 30.27 in 0.2 mi Calm Calm - N/A Fog Fog
5:03 AM 42.8 °F 42.8 °F 100% 30.26 in 0.2 mi Calm Calm - N/A Fog Fog
5:52 AM 41.0 °F 41.0 °F 100% 30.26 in 0.2 mi Calm Calm - N/A Fog Fog
6:02 AM 41.0 °F 41.0 °F 100% 30.26 in 0.5 mi Calm Calm - N/A Fog Fog
6:16 AM 41.0 °F 41.0 °F 100% 30.26 in 0.2 mi Calm Calm - N/A Fog Fog
6:36 AM 41.0 °F 41.0 °F 100% 30.25 in 0.2 mi Calm Calm - N/A Fog Fog
6:52 AM 41.0 °F 41.0 °F 100% 30.27 in 0.2 mi Calm Calm - N/A Fog Fog
7:31 AM 41.0 °F 41.0 °F 100% 30.25 in 0.2 mi Calm Calm - 0.01 in Fog Fog
7:52 AM 42.1 °F 42.1 °F 100% 30.27 in 0.2 mi Calm Calm - 0.01 in Fog Fog
8:52 AM 44.1 °F 44.1 °F 100% 30.27 in 0.2 mi Calm Calm - N/A Fog Fog
9:52 AM 48.0 °F 46.9 °F 96% 30.26 in 0.2 mi Calm Calm - N/A Fog Fog
10:19 AM 48.2 °F 48.2 °F 100% 30.23 in 0.5 mi Calm Calm - N/A Fog Fog
10:26 AM 50.0 °F 48.2 °F 94% 30.23 in 1.5 mi Calm Calm - N/A   Overcast
10:30 AM 50.0 °F 48.2 °F 94% 30.23 in 3.0 mi Calm Calm - N/A   Overcast
10:52 AM 55.9 °F 51.1 °F 84% 30.24 in 10.0 mi Calm Calm - N/A   Partly Cloudy
11:52 AM 64.9 °F 50.0 °F 58% 30.22 in 10.0 mi Calm Calm - N/A   Clear
12:52 PM 70.0 °F 50.0 °F 49% 30.19 in 10.0 mi SSW 3.5 mph - N/A   Clear
1:52 PM 72.0 °F 48.0 °F 43% 30.16 in 10.0 mi SSW 6.9 mph - N/A   Clear
2:52 PM 72.0 °F 48.9 °F 44% 30.14 in 10.0 mi SSW 6.9 mph - N/A   Clear
3:52 PM 72.0 °F 48.9 °F 44% 30.13 in 10.0 mi South 8.1 mph - N/A   Clear
4:52 PM 70.0 °F 51.1 °F 51% 30.11 in 10.0 mi SSE 4.6 mph - N/A   Clear
5:52 PM 66.0 °F 51.1 °F 59% 30.11 in 10.0 mi SSE 5.8 mph - N/A   Clear
6:52 PM 55.0 °F 52.0 °F 89% 30.12 in 10.0 mi Calm Calm - N/A   Clear
7:52 PM 50.0 °F 48.9 °F 96% 30.13 in 10.0 mi Calm Calm - N/A   Clear
8:52 PM 48.9 °F 46.9 °F 93% 30.14 in 10.0 mi Calm Calm - N/A   Clear
9:52 PM 45.0 °F 43.0 °F 93% 30.14 in 10.0 mi Calm Calm - N/A   Clear
10:52 PM 42.1 °F 41.0 °F 96% 30.14 in 10.0 mi Calm Calm - N/A   Clear
11:35 PM 41.0 °F 39.2 °F 93% 30.13 in 8.0 mi Calm Calm - N/A   Scattered Clouds
11:41 PM 42.8 °F 39.2 °F 87% 30.13 in 1.8 mi Calm Calm - N/A   Mostly Cloudy
11:43 PM 41.0 °F 39.2 °F 93% 30.13 in 0.8 mi Calm Calm - N/A   Mostly Cloudy
11:49 PM 42.8 °F 41.0 °F 93% 30.13 in 0.2 mi Calm Calm - N/A Fog Fog
11:52 PM 43.0 °F 41.0 °F 93% 30.14 in 0.2 mi Calm Calm - N/A Fog Fog